Time,TemperatureF,DewpointF,PressureIn,WindDirection,WindDirectionDegrees,WindSpeedMPH,WindSpeedGustMPH,Humidity,HourlyPrecipIn,Conditions,Clouds,dailyrainin,SoftwareType,DateUTC
2013-06-01 00:02:00,65.0,61.0,29.77,North,-999,-999.0,-999.0,88,-99.99,,,-99.99,,2013-06-01 05:02:00,
2013-06-01 00:12:00,65.0,61.0,29.80,North,-999,-999.0,-999.0,87,-99.99,,,-99.99,,2013-06-01 05:12:00,
2013-06-01 00:22:00,65.0,62.0,29.78,North,-999,-999.0,-999.0,88,-99.99,,,-99.99,,2013-06-01 05:22:00,
2013-06-01 00:32:00,65.0,61.0,29.83,North,-999,-999.0,-999.0,88,-99.99,,,-99.99,,2013-06-01 05:32:00,
2013-06-01 00:42:00,65.0,61.0,29.83,North,-999,-999.0,-999.0,88,-99.99,,,-99.99,,2013-06-01 05:42:00,
2013-06-01 00:52:00,65.0,61.0,29.82,North,-999,-999.0,-999.0,89,-99.99,,,-99.99,,2013-06-01 05:52:00,
2013-06-01 01:01:00,65.0,61.0,29.82,North,-999,-999.0,-999.0,89,-99.99,,,-99.99,,2013-06-01 06:01:00,
2013-06-01 01:12:00,65.0,61.0,29.78,North,-999,-999.0,-999.0,89,-99.99,,,-99.99,,2013-06-01 06:12:00,
2013-06-01 01:22:00,65.0,62.0,29.78,North,-999,-999.0,-999.0,89,-99.99,,,-99.99,,2013-06-01 06:22:00,
2013-06-01 01:32:00,65.0,62.0,29.75,North,-999,-999.0,-999.0,89,-99.99,,,-99.99,,2013-06-01 06:32:00,
2013-06-01 01:42:00,65.0,62.0,29.75,North,-999,-999.0,-999.0,89,-99.99,,,-99.99,,2013-06-01 06:42:00,
2013-06-01 01:52:00,66.0,62.0,29.73,North,-999,-999.0,-999.0,87,-99.99,,,-99.99,,2013-06-01 06:52:00,
2013-06-01 02:01:00,66.0,62.0,29.73,North,-999,-999.0,-999.0,87,-99.99,,,-99.99,,2013-06-01 07:01:00,
2013-06-01 02:11:00,66.0,62.0,29.73,North,-999,-999.0,-999.0,87,-99.99,,,-99.99,,2013-06-01 07:11:00,
2013-06-01 02:22:00,66.0,62.0,29.73,North,-999,-999.0,-999.0,87,-99.99,,,-99.99,,2013-06-01 07:22:00,
2013-06-01 02:32:00,65.0,61.0,29.73,North,-999,-999.0,-999.0,87,-99.99,,,-99.99,,2013-06-01 07:32:00,
2013-06-01 02:42:00,65.0,61.0,29.73,North,-999,-999.0,-999.0,87,-99.99,,,-99.99,,2013-06-01 07:42:00,
2013-06-01 02:52:00,65.0,62.0,29.72,North,-999,-999.0,-999.0,88,-99.99,,,-99.99,,2013-06-01 07:52:00,
2013-06-01 03:02:00,65.0,62.0,29.72,North,-999,-999.0,-999.0,88,-99.99,,,-99.99,,2013-06-01 08:02:00,
2013-06-01 03:11:00,65.0,61.0,29.73,North,-999,-999.0,-999.0,88,-99.99,,,-99.99,,2013-06-01 08:11:00,
2013-06-01 03:21:00,65.0,62.0,29.70,North,-999,-999.0,-999.0,88,-99.99,,,-99.99,,2013-06-01 08:21:00,
2013-06-01 03:32:00,65.0,62.0,29.70,North,-999,-999.0,-999.0,88,-99.99,,,-99.99,,2013-06-01 08:32:00,
2013-06-01 03:42:00,65.0,62.0,29.70,North,-999,-999.0,-999.0,88,-99.99,,,-99.99,,2013-06-01 08:42:00,
2013-06-01 03:52:00,66.0,62.0,29.69,North,-999,-999.0,-999.0,88,-99.99,,,-99.99,,2013-06-01 08:52:00,
2013-06-01 04:01:00,66.0,62.0,29.69,North,-999,-999.0,-999.0,88,-99.99,,,-99.99,,2013-06-01 09:01:00,
2013-06-01 04:12:00,66.0,62.0,29.71,North,-999,-999.0,-999.0,87,-99.99,,,-99.99,,2013-06-01 09:12:00,
2013-06-01 04:21:00,65.0,61.0,29.71,North,-999,-999.0,-999.0,88,-99.99,,,-99.99,,2013-06-01 09:21:00,
2013-06-01 04:33:00,65.0,61.0,29.71,North,-999,-999.0,-999.0,88,-99.99,,,-99.99,,2013-06-01 09:33:00,
2013-06-01 04:42:00,65.0,62.0,29.74,North,-999,-999.0,-999.0,89,-99.99,,,-99.99,,2013-06-01 09:42:00,
2013-06-01 04:53:00,65.0,62.0,29.72,North,-999,-999.0,-999.0,90,-99.99,,,-99.99,,2013-06-01 09:53:00,
2013-06-01 05:02:00,65.0,62.0,29.72,North,-999,-999.0,-999.0,90,-99.99,,,-99.99,,2013-06-01 10:02:00,
2013-06-01 05:13:00,65.0,62.0,29.71,North,-999,-999.0,-999.0,90,-99.99,,,-99.99,,2013-06-01 10:13:00,
2013-06-01 05:22:00,65.0,62.0,29.75,North,-999,-999.0,-999.0,90,-99.99,,,-99.99,,2013-06-01 10:22:00,
2013-06-01 05:33:00,65.0,62.0,29.78,North,-999,-999.0,-999.0,90,-99.99,,,-99.99,,2013-06-01 10:33:00,
2013-06-01 05:42:00,65.0,62.0,29.78,North,-999,-999.0,-999.0,90,-99.99,,,-99.99,,2013-06-01 10:42:00,
2013-06-01 05:52:00,65.0,62.0,29.80,North,-999,-999.0,-999.0,90,-99.99,,,-99.99,,2013-06-01 10:52:00,
2013-06-01 06:02:00,65.0,62.0,29.80,North,-999,-999.0,-999.0,90,-99.99,,,-99.99,,2013-06-01 11:02:00,
2013-06-01 06:11:00,65.0,62.0,29.79,North,-999,-999.0,-999.0,90,-99.99,,,-99.99,,2013-06-01 11:11:00,
2013-06-01 06:21:00,66.0,63.0,29.78,North,-999,-999.0,-999.0,90,-99.99,,,-99.99,,2013-06-01 11:21:00,
2013-06-01 06:32:00,65.0,62.0,29.81,North,-999,-999.0,-999.0,90,-99.99,,,-99.99,,2013-06-01 11:32:00,
2013-06-01 06:42:00,65.0,62.0,29.81,North,-999,-999.0,-999.0,90,-99.99,,,-99.99,,2013-06-01 11:42:00,
2013-06-01 06:52:00,66.0,63.0,29.78,North,-999,-999.0,-999.0,90,-99.99,,,-99.99,,2013-06-01 11:52:00,
2013-06-01 07:01:00,66.0,63.0,29.78,North,-999,-999.0,-999.0,90,-99.99,,,-99.99,,2013-06-01 12:01:00,
2013-06-01 07:12:00,66.0,63.0,29.74,North,-999,-999.0,-999.0,90,-99.99,,,-99.99,,2013-06-01 12:12:00,
2013-06-01 07:21:00,65.0,62.0,29.78,North,-999,-999.0,-999.0,89,-99.99,,,-99.99,,2013-06-01 12:21:00,
2013-06-01 07:32:00,65.0,62.0,29.78,North,-999,-999.0,-999.0,89,-99.99,,,-99.99,,2013-06-01 12:32:00,
2013-06-01 07:42:00,65.0,62.0,29.78,North,-999,-999.0,-999.0,89,-99.99,,,-99.99,,2013-06-01 12:42:00,
2013-06-01 07:52:00,65.0,62.0,29.76,North,-999,-999.0,-999.0,89,-99.99,,,-99.99,,2013-06-01 12:52:00,
2013-06-01 08:01:00,65.0,62.0,29.76,North,-999,-999.0,-999.0,89,-99.99,,,-99.99,,2013-06-01 13:01:00,
2013-06-01 08:11:00,65.0,62.0,29.78,North,-999,-999.0,-999.0,89,-99.99,,,-99.99,,2013-06-01 13:11:00,
2013-06-01 08:22:00,65.0,62.0,29.74,North,-999,-999.0,-999.0,89,-99.99,,,-99.99,,2013-06-01 13:22:00,
2013-06-01 08:32:00,65.0,62.0,29.74,North,-999,-999.0,-999.0,89,-99.99,,,-99.99,,2013-06-01 13:32:00,
2013-06-01 08:42:00,65.0,62.0,29.72,North,-999,-999.0,-999.0,89,-99.99,,,-99.99,,2013-06-01 13:42:00,
2013-06-01 08:52:00,65.0,61.0,29.73,North,-999,-999.0,-999.0,88,-99.99,,,-99.99,,2013-06-01 13:52:00,
2013-06-01 09:02:00,65.0,61.0,29.73,North,-999,-999.0,-999.0,88,-99.99,,,-99.99,,2013-06-01 14:02:00,
2013-06-01 09:11:00,65.0,61.0,29.75,North,-999,-999.0,-999.0,87,-99.99,,,-99.99,,2013-06-01 14:11:00,
2013-06-01 09:21:00,65.0,61.0,29.80,North,-999,-999.0,-999.0,88,-99.99,,,-99.99,,2013-06-01 14:21:00,
2013-06-01 09:32:00,64.0,61.0,29.79,North,-999,-999.0,-999.0,88,-99.99,,,-99.99,,2013-06-01 14:32:00,
2013-06-01 09:42:00,64.0,61.0,29.79,North,-999,-999.0,-999.0,88,-99.99,,,-99.99,,2013-06-01 14:42:00,
2013-06-01 09:52:00,64.0,61.0,29.80,North,-999,-999.0,-999.0,88,-99.99,,,-99.99,,2013-06-01 14:52:00,
2013-06-01 10:02:00,64.0,61.0,29.80,North,-999,-999.0,-999.0,88,-99.99,,,-99.99,,2013-06-01 15:02:00,
2013-06-01 10:11:00,64.0,61.0,29.79,North,-999,-999.0,-999.0,88,-99.99,,,-99.99,,2013-06-01 15:11:00,
2013-06-01 10:21:00,64.0,61.0,29.80,North,-999,-999.0,-999.0,89,-99.99,,,-99.99,,2013-06-01 15:21:00,
2013-06-01 10:33:00,65.0,61.0,29.80,North,-999,-999.0,-999.0,89,-99.99,,,-99.99,,2013-06-01 15:33:00,
2013-06-01 10:43:00,65.0,61.0,29.80,North,-999,-999.0,-999.0,89,-99.99,,,-99.99,,2013-06-01 15:43:00,
2013-06-01 10:53:00,65.0,61.0,29.81,North,-999,-999.0,-999.0,87,-99.99,,,-99.99,,2013-06-01 15:53:00,
2013-06-01 11:03:00,65.0,61.0,29.81,North,-999,-999.0,-999.0,87,-99.99,,,-99.99,,2013-06-01 16:03:00,
2013-06-01 11:12:00,66.0,62.0,29.82,North,-999,-999.0,-999.0,86,-99.99,,,-99.99,,2013-06-01 16:12:00,
2013-06-01 11:23:00,67.0,62.0,29.82,North,-999,-999.0,-999.0,84,-99.99,,,-99.99,,2013-06-01 16:23:00,
2013-06-01 11:33:00,67.0,62.0,29.82,North,-999,-999.0,-999.0,83,-99.99,,,-99.99,,2013-06-01 16:33:00,
2013-06-01 11:42:00,67.0,62.0,29.82,North,-999,-999.0,-999.0,83,-99.99,,,-99.99,,2013-06-01 16:42:00,
2013-06-01 11:52:00,68.0,61.0,29.83,North,-999,-999.0,-999.0,80,-99.99,,,-99.99,,2013-06-01 16:52:00,
2013-06-01 12:02:00,68.0,61.0,29.83,North,-999,-999.0,-999.0,80,-99.99,,,-99.99,,2013-06-01 17:02:00,
2013-06-01 12:12:00,68.0,62.0,29.83,North,-999,-999.0,-999.0,80,-99.99,,,-99.99,,2013-06-01 17:12:00,
2013-06-01 12:22:00,69.0,62.0,29.84,North,-999,-999.0,-999.0,79,-99.99,,,-99.99,,2013-06-01 17:22:00,
2013-06-01 12:32:00,69.0,61.0,29.84,North,-999,-999.0,-999.0,75,-99.99,,,-99.99,,2013-06-01 17:32:00,
2013-06-01 12:42:00,69.0,61.0,29.84,North,-999,-999.0,-999.0,75,-99.99,,,-99.99,,2013-06-01 17:42:00,
2013-06-01 12:52:00,71.0,63.0,29.84,North,-999,-999.0,-999.0,76,-99.99,,,-99.99,,2013-06-01 17:52:00,
2013-06-01 13:01:00,71.0,63.0,29.84,North,-999,-999.0,-999.0,76,-99.99,,,-99.99,,2013-06-01 18:01:00,
2013-06-01 13:12:00,71.0,62.0,29.84,North,-999,-999.0,-999.0,73,-99.99,,,-99.99,,2013-06-01 18:12:00,
2013-06-01 13:22:00,72.0,61.0,29.84,North,-999,-999.0,-999.0,69,-99.99,,,-99.99,,2013-06-01 18:22:00,
2013-06-01 13:32:00,72.0,61.0,29.84,North,-999,-999.0,-999.0,69,-99.99,,,-99.99,,2013-06-01 18:32:00,
2013-06-01 13:42:00,73.0,62.0,29.84,North,-999,-999.0,-999.0,68,-99.99,,,-99.99,,2013-06-01 18:42:00,
2013-06-01 13:51:00,72.0,59.0,29.85,North,-999,-999.0,-999.0,62,-99.99,,,-99.99,,2013-06-01 18:51:00,
2013-06-01 14:02:00,72.0,59.0,29.85,North,-999,-999.0,-999.0,62,-99.99,,,-99.99,,2013-06-01 19:02:00,
2013-06-01 14:11:00,73.0,59.0,29.84,North,-999,-999.0,-999.0,61,-99.99,,,-99.99,,2013-06-01 19:11:00,
2013-06-01 14:21:00,75.0,62.0,29.84,North,-999,-999.0,-999.0,64,-99.99,,,-99.99,,2013-06-01 19:21:00,
2013-06-01 14:32:00,75.0,61.0,29.84,North,-999,-999.0,-999.0,63,-99.99,,,-99.99,,2013-06-01 19:32:00,
2013-06-01 14:42:00,75.0,61.0,29.84,North,-999,-999.0,-999.0,63,-99.99,,,-99.99,,2013-06-01 19:42:00,
2013-06-01 14:52:00,75.0,62.0,29.85,North,-999,-999.0,-999.0,64,-99.99,,,-99.99,,2013-06-01 19:52:00,
2013-06-01 15:02:00,75.0,62.0,29.85,North,-999,-999.0,-999.0,64,-99.99,,,-99.99,,2013-06-01 20:02:00,
2013-06-01 15:12:00,75.0,63.0,29.84,North,-999,-999.0,-999.0,67,-99.99,,,-99.99,,2013-06-01 20:12:00,
2013-06-01 15:21:00,75.0,63.0,29.85,North,-999,-999.0,-999.0,65,-99.99,,,-99.99,,2013-06-01 20:21:00,
2013-06-01 15:32:00,75.0,62.0,29.85,North,-999,-999.0,-999.0,65,-99.99,,,-99.99,,2013-06-01 20:32:00,
2013-06-01 15:42:00,75.0,62.0,29.85,North,-999,-999.0,-999.0,65,-99.99,,,-99.99,,2013-06-01 20:42:00,
2013-06-01 15:52:00,75.0,62.0,29.85,North,-999,-999.0,-999.0,63,-99.99,,,-99.99,,2013-06-01 20:52:00,
2013-06-01 16:01:00,75.0,62.0,29.85,North,-999,-999.0,-999.0,63,-99.99,,,-99.99,,2013-06-01 21:01:00,
2013-06-01 16:11:00,74.0,61.0,29.86,North,-999,-999.0,-999.0,64,-99.99,,,-99.99,,2013-06-01 21:11:00,
2013-06-01 16:21:00,73.0,59.0,29.86,North,-999,-999.0,-999.0,62,-99.99,,,-99.99,,2013-06-01 21:21:00,
2013-06-01 16:33:00,73.0,59.0,29.86,North,-999,-999.0,-999.0,62,-99.99,,,-99.99,,2013-06-01 21:33:00,
2013-06-01 16:42:00,73.0,59.0,29.87,North,-999,-999.0,-999.0,61,-99.99,,,-99.99,,2013-06-01 21:42:00,
2013-06-01 16:53:00,74.0,60.0,29.87,North,-999,-999.0,-999.0,62,-99.99,,,-99.99,,2013-06-01 21:53:00,
2013-06-01 17:03:00,74.0,60.0,29.87,North,-999,-999.0,-999.0,62,-99.99,,,-99.99,,2013-06-01 22:03:00,
2013-06-01 17:12:00,74.0,58.0,29.87,North,-999,-999.0,-999.0,59,-99.99,,,-99.99,,2013-06-01 22:12:00,
2013-06-01 17:23:00,73.0,58.0,29.87,North,-999,-999.0,-999.0,59,-99.99,,,-99.99,,2013-06-01 22:23:00,
2013-06-01 17:33:00,72.0,58.0,29.88,North,-999,-999.0,-999.0,60,-99.99,,,-99.99,,2013-06-01 22:33:00,
2013-06-01 17:42:00,72.0,58.0,29.88,North,-999,-999.0,-999.0,60,-99.99,,,-99.99,,2013-06-01 22:42:00,
2013-06-01 17:53:00,72.0,57.0,29.88,North,-999,-999.0,-999.0,58,-99.99,,,-99.99,,2013-06-01 22:53:00,
2013-06-01 18:02:00,72.0,57.0,29.88,North,-999,-999.0,-999.0,58,-99.99,,,-99.99,,2013-06-01 23:02:00,
2013-06-01 18:11:00,71.0,57.0,29.87,North,-999,-999.0,-999.0,62,-99.99,,,-99.99,,2013-06-01 23:11:00,
2013-06-01 18:22:00,72.0,57.0,29.87,North,-999,-999.0,-999.0,58,-99.99,,,-99.99,,2013-06-01 23:22:00,
2013-06-01 18:32:00,72.0,57.0,29.88,North,-999,-999.0,-999.0,60,-99.99,,,-99.99,,2013-06-01 23:32:00,
2013-06-01 18:42:00,72.0,57.0,29.88,North,-999,-999.0,-999.0,60,-99.99,,,-99.99,,2013-06-01 23:42:00,
2013-06-01 18:52:00,69.0,55.0,29.88,North,-999,-999.0,-999.0,61,-99.99,,,-99.99,,2013-06-01 23:52:00,
2013-06-01 19:02:00,69.0,55.0,29.88,North,-999,-999.0,-999.0,61,-99.99,,,-99.99,,2013-06-02 00:02:00,
2013-06-01 19:11:00,70.0,56.0,29.88,North,-999,-999.0,-999.0,61,-99.99,,,-99.99,,2013-06-02 00:11:00,
2013-06-01 19:21:00,70.0,55.0,29.88,North,-999,-999.0,-999.0,59,-99.99,,,-99.99,,2013-06-02 00:21:00,
2013-06-01 19:32:00,70.0,55.0,29.88,North,-999,-999.0,-999.0,59,-99.99,,,-99.99,,2013-06-02 00:32:00,
2013-06-01 19:42:00,69.0,56.0,29.89,North,-999,-999.0,-999.0,63,-99.99,,,-99.99,,2013-06-02 00:42:00,
2013-06-01 19:51:00,68.0,56.0,29.89,North,-999,-999.0,-999.0,65,-99.99,,,-99.99,,2013-06-02 00:51:00,
2013-06-01 20:01:00,68.0,56.0,29.89,North,-999,-999.0,-999.0,65,-99.99,,,-99.99,,2013-06-02 01:01:00,
2013-06-01 20:11:00,67.0,56.0,29.90,North,-999,-999.0,-999.0,67,-99.99,,,-99.99,,2013-06-02 01:11:00,
2013-06-01 20:21:00,66.0,55.0,29.90,North,-999,-999.0,-999.0,68,-99.99,,,-99.99,,2013-06-02 01:21:00,
2013-06-01 20:32:00,65.0,55.0,29.90,North,-999,-999.0,-999.0,70,-99.99,,,-99.99,,2013-06-02 01:32:00,
2013-06-01 20:42:00,65.0,55.0,29.90,North,-999,-999.0,-999.0,70,-99.99,,,-99.99,,2013-06-02 01:42:00,
2013-06-01 20:52:00,64.0,55.0,29.91,North,-999,-999.0,-999.0,73,-99.99,,,-99.99,,2013-06-02 01:52:00,
2013-06-01 21:01:00,64.0,55.0,29.91,North,-999,-999.0,-999.0,73,-99.99,,,-99.99,,2013-06-02 02:01:00,
2013-06-01 21:12:00,63.0,55.0,29.91,North,-999,-999.0,-999.0,74,-99.99,,,-99.99,,2013-06-02 02:12:00,
2013-06-01 21:21:00,63.0,55.0,29.92,North,-999,-999.0,-999.0,75,-99.99,,,-99.99,,2013-06-02 02:21:00,
2013-06-01 21:32:00,63.0,55.0,29.92,North,-999,-999.0,-999.0,75,-99.99,,,-99.99,,2013-06-02 02:32:00,
2013-06-01 21:42:00,62.0,55.0,29.92,North,-999,-999.0,-999.0,76,-99.99,,,-99.99,,2013-06-02 02:42:00,
2013-06-01 21:52:00,63.0,55.0,29.94,North,-999,-999.0,-999.0,76,-99.99,,,-99.99,,2013-06-02 02:52:00,
2013-06-01 22:02:00,63.0,55.0,29.94,North,-999,-999.0,-999.0,76,-99.99,,,-99.99,,2013-06-02 03:02:00,
2013-06-01 22:11:00,63.0,55.0,29.94,North,-999,-999.0,-999.0,76,-99.99,,,-99.99,,2013-06-02 03:11:00,
2013-06-01 22:21:00,62.0,55.0,29.94,North,-999,-999.0,-999.0,78,-99.99,,,-99.99,,2013-06-02 03:21:00,
2013-06-01 22:33:00,63.0,56.0,29.94,North,-999,-999.0,-999.0,77,-99.99,,,-99.99,,2013-06-02 03:33:00,
2013-06-01 22:43:00,63.0,56.0,29.94,North,-999,-999.0,-999.0,77,-99.99,,,-99.99,,2013-06-02 03:43:00,
2013-06-01 22:52:00,63.0,56.0,29.95,North,-999,-999.0,-999.0,78,-99.99,,,-99.99,,2013-06-02 03:52:00,
2013-06-01 23:02:00,63.0,-99.9,29.95,North,-999,-999.0,-999.0,78,-99.99,,,-99.99,,2013-06-02 04:02:00,
2013-06-01 23:13:00,63.0,56.0,29.95,North,-999,-999.0,-999.0,78,-99.99,,,-99.99,,2013-06-02 04:13:00,
2013-06-01 23:23:00,63.0,56.0,29.96,North,-999,-999.0,-999.0,79,-99.99,,,-99.99,,2013-06-02 04:23:00,
2013-06-01 23:33:00,62.0,56.0,29.96,North,-999,-999.0,-999.0,80,-99.99,,,-99.99,,2013-06-02 04:33:00,
2013-06-01 23:42:00,62.0,56.0,29.96,North,-999,-999.0,-999.0,80,-99.99,,,-99.99,,2013-06-02 04:42:00,
2013-06-01 23:52:00,62.0,56.0,29.97,North,-999,-999.0,-999.0,80,-99.99,,,-99.99,,2013-06-02 04:52:00,